Preview of NWS' New Version of Forecast
This preview is not operational and should not be used for support decisions.
Latest weather observations around

Oxford, Waterbury-Oxford Airport (KOXC)

Using English Units (Switch to International System of Units)
Date/ Time (EDT) Wind (mph) Vis. (mi) Weather Sky Cond. Temp (°F) Rel. Humidity Wind Chill (°F) Heat Index (°F) Pressure Precip. (in)
Air Dwpt 6 hour Altimeter (inHg) Sea level (inHg) 1 hr 3 hr 6 hr
Max Min
Aug 22 02:51 Calm 7 Clear CLR 68        %     29.86        
Aug 22 02:38 Calm 7 Clear CLR 70        %     29.87        
Aug 22 02:29 Calm 2.5 Fog/Mist CLR 68        %     29.87        
Aug 22 00:51 Calm 10 Clear CLR 69        %     29.9        
Aug 21 23:51 Calm 9 Clear CLR 69        %     29.91        
Aug 21 22:51 Calm 9 Clear   71        %     29.91        
Aug 21 21:51 Calm 10 Mostly Cloudy FEW017 BKN041 BKN075 74        %     29.92        
Aug 21 21:05 Calm   Clear   73        %     29.91        
Aug 21 20:51 SSW 3 10 Mostly Clear FEW075 75        %     29.9        
Aug 21 19:51 5 10 Clear CLR 75 72     90%   76 29.9       0
Aug 21 18:51 SSW 5 10 Mostly Cloudy SCT025 SCT031 BKN039 76 70     82%   77 29.89        
Aug 21 18:36 SSW 8 10 Mostly Cloudy SCT038 BKN048 75 70     83%   76 29.89        
Aug 21 17:51 SSW 8 10 Thunderstorms BKN030 78 74     87%   80 29.88        
Aug 21 17:37 S 8 10 Thunderstorms BKN030 79 73     84%   82 29.88        
Aug 21 17:13 S 8 10 Partly Cloudy FEW026 SCT032 SCT048 81 75     84%   86 29.89        
Aug 21 16:51 S 7 10 Cloudy BKN026 OVC036 78 75     90%   80 29.89   0 0  
Aug 21 15:51 Calm 10 Mostly Cloudy BKN026 78 72     82%   79 29.9        
Aug 21 14:51 NE 6 10 Cloudy BKN024 OVC032 77 72     84%   78 29.92   0    
Aug 21 14:26 NNE 7 10 Cloudy OVC025 77 72     83%   78 29.92   0    
Aug 21 13:55 Calm 10 Cloudy OVC027 79 73     84%   82 29.94        
Aug 21 13:51 Calm 10 Thunderstorms and Rain OVC027 79 72     79%   82 29.94   0   0
Aug 21 13:47 5 10 Thunderstorms and Rain OVC027 79 73     84%   82 29.94   0    
Aug 21 13:36 7 10 Light Rain FEW027 BKN034 79 72     79%   82 29.94   0    
Aug 21 13:11 S 13 10 Mostly Cloudy FEW027 BKN034 81 72     74%   85 29.94        
Aug 21 13:06 S 10 10 Mostly Cloudy BKN027 BKN038 BKN048 81 72     74%   85 29.94        
Aug 21 13:02 S 10 10 Mostly Cloudy BKN027 BKN038 BKN048 81 72     74%   85 29.94        
Aug 21 12:51 S 13 10 Mostly Cloudy BKN027 82 71     69%   86 29.95        
Aug 21 11:51 SSW 7 10 Mostly Cloudy BKN021 81 72     74%   85 29.96        
Aug 21 11:09 SSW 10 10 Mostly Cloudy BKN014 79 72     79%   82 29.98        
Aug 21 10:51 S 10 7 Mostly Cloudy BKN009 80 73     79%   84 29.97 29.99      
Aug 21 10:08 SSE 10 6 Haze BKN006 OVC010 79 73     84%   82 29.99        
Aug 21 09:51 SE 7 6 Fog/Mist OVC004 75 73     94%   77 30        
Aug 21 08:51 SSE 8 3 Fog/Mist OVC004 74 72     94%   75 30.01 30.02      
Aug 21 07:51 SE 3 3 Fog/Mist OVC004 72 71     97%   73 30.02        
Aug 21 07:22 S 3 3 Fog/Mist OVC004 72 72     100%   73 30.02        
Aug 21 06:59 Calm 2 Fog/Mist OVC002 72 70     94%   73 30.01        
Aug 21 06:57 Calm 3 Fog/Mist OVC002 72 70     94%   73 30.01        
Aug 21 06:51 Calm 2 Fog/Mist OVC002 71 71     100%   73 30.01 30.03      
Aug 21 06:23 Calm 1.25 Fog/Mist OVC002 72 70     94%   73 30.02        
Aug 21 05:51 Calm 4 Fog/Mist OVC004 71 69     93%   72 30.02 30.03      
Aug 21 04:58 SSE 5 10 Cloudy OVC004 70 68     94%     30.03        
Aug 21 04:51 SSE 3 10 Cloudy OVC006 70 68     93%     30.03        
Aug 21 04:11 SSW 5 10 Mostly Cloudy BKN006 68 64     88%     30.04        
Aug 21 03:51 SSE 3 10 Mostly Clear FEW006 68 65     90%     30.04        
Aug 21 02:51 Calm 10 Mostly Clear FEW050 68 63     84%     30.06        
Aug 21 01:51 Calm 10 Clear CLR 70 63     78%     30.07        
Aug 21 00:51 Calm 10 Clear CLR 70 63     78%     30.08        
Aug 20 23:51 Calm 10 Clear CLR 72 65     79%   73 30.08        
Aug 20 22:51 S 3 10 Clear CLR 71 66     84%   72 30.08        
Aug 20 21:51 Calm 10 Clear CLR 73 66     79%   74 30.09        
Aug 20 20:51 S 3 10 Clear CLR 75 66     74%   76 30.07        
Aug 20 19:51 Calm 10 Clear CLR 78 67     69%   79 30.07        
Aug 20 18:51 3 10 Clear CLR 81 67     62%   83 30.08        
Aug 20 17:51 3 10 Clear CLR 84 66     55%   86 30.09        
Aug 20 16:51 WNW 3 10 Mostly Clear FEW055 86 64     48%   87 30.09        
Aug 20 15:51 7 10 Mostly Clear FEW055 84 63     49%   85 30.09        
Aug 20 14:51 3 10 Mostly Clear FEW050 84 62     48%   85 30.11        
Aug 20 13:51 SW 8 10 Clear CLR 82 62     51%   83 30.11        
Aug 20 12:51 NNW 8 10 Clear CLR 81 61     51%   82 30.12        
Aug 20 11:51 3 10 Clear CLR 79 58     49%   79 30.14        
Aug 20 10:51 NNE 8 10 Clear CLR 79 58     49%   79 30.14        
Aug 20 09:51 N 10 10 Clear CLR 77 60     56%   77 30.14 30.16      
Aug 20 08:51 N 8 10 Clear CLR 75 60     60%   75 30.15        
Aug 20 07:51 N 5 10 Clear CLR 71 62     73%   71 30.14 30.16      
Aug 20 06:51 NNW 5 10 Clear CLR 65 64     97%     30.13        
Aug 20 05:51 Calm 10 Clear CLR 64 63     96%     30.11        
Aug 20 04:51 N 5 10 Clear CLR 67 63     87%     30.08        
Aug 20 03:51 N 3 10 Clear CLR 68 66     93%     30.07 30.08      
Aug 20 02:51 N 7 10 Clear CLR 69 67     93%     30.05 30.06      
Aug 20 01:51 NNE 3 10 Clear   69 68     96%     30.05        
Aug 20 00:51 Calm 10 Clear CLR 70 69     97%     30.04        
Aug 19 23:51 Calm 10 Clear CLR 71 69     93%   72 30.04        
Aug 19 22:51 Calm 10 Clear CLR 72 70     93%   73 30.03        
Aug 19 21:51 Calm 10 Clear CLR 71 70     96%   72 30.03        
Aug 19 20:51 Calm 10 Clear CLR 73 70     90%   74 30.02        
Aug 19 19:51 5 10 Clear CLR 74 70     87%   75 30.01       0
Aug 19 18:51 SSW 5 10 Mostly Clear FEW045 76 70     82%   77 30.01        
Aug 19 17:51 SSW 10 10 Mostly Clear FEW045 78 71     79%   79 29.99   0    
Aug 19 17:31 S 9 10 Partly Cloudy FEW045 SCT090 77 72     83%   78 29.98   0    
Aug 19 16:51 S 7 10 Thunderstorms SCT046 BKN090 77 69     77%   78 29.96   0 0  
Aug 19 16:08 7 10 Thunderstorms BKN045 84 73     70%   91 29.96        
Aug 19 16:02 WSW 3 10 Mostly Cloudy BKN045 84 72     66%   90 29.96        
Aug 19 14:51 6 10 Partly Cloudy SCT035 88 72     59%   95 29.97        
Aug 19 13:51 SW 8 10 Mostly Clear FEW035 87 72     61%   94 30        
Aug 19 12:51 5 10 Clear CLR 85 71     63%   90 30        
Aug 19 11:51 S 8 10 Mostly Clear FEW021 83 74     74%   89 30.01        
Aug 19 10:51 WSW 8 10 Mostly Clear FEW016 80 74     82%   85 30.02        
Aug 19 09:51 3 10 Mostly Clear FEW085 77 72     84%   78 30.02        
Aug 19 08:51 Calm 10 Clear CLR 73 69     87%   74 30.02        
Aug 19 07:51 Calm 10 Mostly Clear FEW100 71 68     90%   72 30.03        
Aug 19 06:51 Calm 10 Mostly Clear FEW090 67 66     97%     30.02        
Aug 19 05:51 Calm 10 Mostly Cloudy BKN075 67 66     97%     30.02 30.04      
Aug 19 05:36 Calm 10 Partly Cloudy SCT027 SCT070 66 66     100%     30.02        
Aug 19 04:51 NNW 3 10 Mostly Cloudy BKN025 67 66     97%     30.02        
Aug 19 03:51 Calm 10 Clear CLR 66 65     96%     30 30.01      
May 15 12:51 S 10 8 Clear CLR 76 66     71%   77 29.83 29.85      
May 14 11:51 WNW 5 10 Cloudy OVC008 56 52     87%     30.02 30.06      
May 14 08:49 Calm 1 Fog/Mist OVC001 50 50     100%     30.03        
May 14 05:07 S 3 1 Fog/Mist OVC001 48 48     100% 47   30.01        
May 13 13:51 SE 6 10 Light Rain OVC007 51 48     89%     30.17 30.21 0   0
May 12 11:14 ENE 8 6 Light Rain and Fog/Mist OVC028 46 43     87% 42   30.16   0    
May 12 01:51 Calm 10 Cloudy OVC100 54 32     43%     30.14 30.17      
Jun 12 03:15 Calm 10 Clear CLR 72 57     60%   71 29.99        
Jun 12 01:15 SW 3 10 Clear CLR 72 59     65%   71 30.02        
Jun 12 00:15 SW 3 10 Clear   73 59     61%   73 30.01        
Notice The following observation data may not be complete
Jun 11 23:35   10 Clear CLR          %              
Jun 11 21:15 SSW 3 10 Clear CLR 77 61     57%   77 30.01        
Jun 11 03:35 SSW 3 10 Clear   64 55     73%     30.04        
Jun 11 01:35 SW 3 10 Clear CLR 66 57     73%     30.04        
Notice The following observation data may not be complete
Jun 11 01:15   10 Clear CLR          %              
Jun 10 22:55 SW 5 10 Clear CLR 70 55     60%     30.03        
Notice The following observation data may not be complete
Jun 10 10:50   10 Partly Cloudy SCT150          %              
Jun 10 05:55 Calm 10 Clear CLR 54 46     77%     29.94        
Jun 10 00:35 Calm 10 Clear CLR 59 48     67%     29.89        
Jun 09 16:50   10 Partly Cloudy SCT055 75 48     38%   74 29.74        
Jun 09 08:50 Calm 10 Mostly Cloudy BKN150 59 41     51%     29.75        
Jun 08 23:35 NW 3 10 Clear CLR 52        %     29.83        
Jun 08 17:50 S 7 10 Mostly Cloudy BKN150 61 46     59%     29.93        
Jun 08 14:50 S 11 10 Cloudy OVC200 64        %     29.99        
Jun 08 12:50 S 14 10 Mostly Cloudy BKN250 70 50     49%     30.02        
Jun 08 02:55 Calm 10 Clear CLR 48 45     87%     30.02        
Notice The following observation data may not be complete
Jun 08 01:35   10 Clear CLR          %              
Jun 07 10:50 ENE 9 10 Mostly Cloudy SCT030 BKN055 61 43     51%     30        
Jun 06 05:15 NE 10 10 Clear   52 46     82%     29.72        
Jun 06 04:55 NE 11 10 Clear   52 46     82%     29.72   0 0  
Jun 06 03:35 NE 11 10 Clear   52 46     82%     29.73        
Jun 06 00:15   9 Clear   54 48     82%     29.78        
Jun 05 23:15 NNE 9 3 Clear   54 48     82%     29.79